Theta_e
290 289 287 288 287 287 286 286 287 287 288 287 288 287 287 286 287 286 285 286 286 286 286 285 285 285 285 285 285 285 285 285 285 285 285 285 286 291 299 302 306 308 311 315 316 318 319 319 320 320 321 320 319 320 321 321 321 321 322 322 323 322 321 321 322 321 321 321 322 322 323 323 324 324 325 326 326 326 327 328 329 331 332 333 334
290 288 287 287 286 286 287 287 287 287 287 287 287 286 286 285 285 285 285 285 286 288 286 285 285 285 285 285 285 285 285 285 285 285 285 285 286 288 295 299 303 306 309 312 315 315 316 317 318 319 319 319 318 319 320 321 321 320 320 321 321 321 321 319 320 320 320 319 319 320 321 321 321 322 323 324 325 326 327 327 327 328 329 331 331
289 288 287 286 286 286 286 286 286 286 287 287 286 286 285 285 286 285 285 284 285 286 285 284 284 284 285 284 284 285 285 285 285 285 285 285 285 286 289 296 300 303 307 310 312 312 312 313 316 317 317 316 317 318 318 320 320 319 320 320 320 320 319 319 319 319 318 317 318 319 319 320 320 320 321 322 323 324 325 326 327 328 329 329 330
289 288 287 286 286 285 285 286 286 286 286 286 286 286 285 285 285 285 284 284 285 284 285 283 283 284 283 284 284 284 284 285 285 285 285 285 284 285 286 290 295 300 303 306 309 309 310 311 313 313 313 313 315 317 317 318 318 318 318 318 318 319 318 318 318 318 317 316 317 318 319 319 320 319 319 320 320 321 321 322 323 325 327 328 329
289 289 290 286 285 285 285 286 286 286 286 286 286 286 286 286 285 285 284 284 284 284 285 283 283 283 283 284 283 284 284 284 284 284 284 284 284 285 286 288 288 295 299 301 305 307 308 308 308 308 309 311 314 315 316 316 316 316 316 317 317 318 317 317 316 316 317 316 316 317 317 318 318 319 319 319 319 320 320 321 321 322 323 325 326
289 288 288 286 285 285 285 285 285 285 286 286 285 285 285 284 285 285 288 284 283 283 283 283 283 282 283 283 283 283 283 284 284 284 284 284 284 285 286 286 287 289 291 297 299 304 305 305 305 306 308 309 310 312 314 314 314 314 315 315 316 316 317 315 315 315 316 315 315 315 316 317 317 317 318 318 318 319 319 320 321 322 322 323 324
289 289 287 286 285 284 284 284 285 285 285 285 285 285 285 284 283 282 282 282 283 285 282 282 282 283 283 284 283 284 283 283 284 284 284 284 285 285 286 286 288 289 290 287 292 298 301 302 303 304 306 307 308 309 312 312 312 313 314 314 314 315 315 314 314 315 314 314 314 314 315 316 316 316 317 317 317 318 319 319 320 320 321 322 323
289 288 288 286 285 284 284 284 285 285 285 284 285 285 284 284 284 282 282 282 283 281 282 282 282 283 283 283 282 285 282 282 284 284 284 284 284 285 286 286 288 289 290 286 286 291 297 299 300 301 303 304 305 307 309 310 310 312 312 313 313 313 313 313 313 313 313 313 313 314 314 314 315 315 315 316 316 317 317 318 318 319 319 320 321
289 288 288 287 286 284 283 284 285 284 284 283 284 285 284 284 283 284 282 282 281 281 281 282 282 282 282 281 282 283 282 283 284 284 285 283 284 284 285 285 288 290 284 284 285 285 292 295 296 297 299 301 302 304 306 307 308 310 311 312 313 312 312 312 311 311 311 311 312 313 314 314 313 314 314 315 315 316 316 316 317 317 318 318 319
289 288 288 287 286 285 284 284 285 284 283 283 283 284 282 282 282 282 281 281 280 280 281 281 282 282 282 282 282 281 282 282 285 287 282 283 284 283 283 283 284 284 284 284 284 284 285 289 292 293 294 298 300 302 303 303 305 308 310 311 312 312 310 310 310 310 310 311 312 312 312 313 313 313 314 313 313 314 315 315 315 316 316 317 318
289 288 287 287 286 285 284 284 284 283 283 283 283 283 282 281 282 282 281 281 281 280 281 282 281 282 282 281 281 281 282 285 282 282 282 283 286 285 284 283 283 283 284 283 283 283 284 284 283 283 285 295 297 298 300 300 302 305 308 309 310 309 309 309 310 310 310 311 311 311 312 312 312 312 313 313 313 313 314 314 315 315 315 316 316
288 288 288 287 286 285 284 284 284 284 283 283 283 282 282 282 281 282 282 281 281 280 280 282 280 280 283 281 281 282 284 283 282 282 282 281 282 282 283 282 282 282 283 282 283 283 284 284 285 283 284 288 294 294 296 296 297 301 304 306 308 309 309 309 309 309 310 310 310 311 311 311 311 312 312 312 313 313 314 314 314 314 314 314 315
288 288 287 288 286 284 284 284 284 284 284 284 284 282 282 282 283 282 280 279 280 279 280 279 280 280 279 280 281 281 286 282 280 281 281 281 281 282 282 282 281 282 282 282 282 283 283 283 283 283 283 283 286 290 292 292 293 298 302 302 306 308 309 309 308 308 309 309 309 309 310 310 311 311 311 311 312 312 313 313 313 314 314 314 314
289 288 287 287 285 284 284 284 284 284 284 283 282 283 283 282 282 280 280 278 279 279 280 279 279 278 279 280 279 279 283 281 281 280 281 282 281 281 282 282 281 282 282 282 282 282 282 282 282 282 283 283 284 283 284 285 288 294 298 301 305 307 308 308 308 307 308 307 307 308 309 309 309 310 310 310 311 311 312 312 312 313 313 314 314
288 288 287 287 286 285 284 284 284 284 283 282 282 281 282 282 282 281 279 280 280 280 279 278 278 279 279 279 278 278 282 279 278 280 280 280 280 281 282 281 281 281 282 281 281 281 282 282 281 282 282 283 283 282 283 286 288 291 293 296 300 303 306 308 307 307 307 306 307 307 308 308 308 308 309 309 309 310 310 311 311 312 312 312 313
288 288 288 287 286 285 284 284 283 284 284 283 282 281 281 282 281 281 281 279 278 279 281 279 278 280 280 278 276 278 276 278 277 279 279 279 280 280 281 280 280 281 281 281 281 281 281 281 281 281 281 282 282 282 283 283 287 289 289 291 295 299 303 304 304 305 306 306 305 305 306 306 306 307 308 308 308 308 309 310 310 310 311 311 311
288 288 288 287 286 285 284 284 283 283 283 283 282 282 282 282 282 280 280 280 279 278 280 279 278 281 280 276 276 279 277 277 276 277 277 280 279 278 284 280 280 281 279 280 279 280 281 280 280 280 280 281 281 281 282 282 283 286 285 288 294 296 298 301 303 303 304 303 304 304 304 305 305 306 306 307 307 308 308 309 309 309 310 310 311
288 287 287 287 286 285 284 284 283 283 283 283 282 281 281 282 282 281 280 279 280 278 277 281 280 280 278 277 278 278 276 275 277 279 277 278 277 279 279 277 279 279 279 279 279 279 282 280 280 280 280 280 281 281 281 281 284 282 284 288 295 296 296 296 299 300 302 302 302 303 304 304 304 305 305 305 306 306 307 308 308 308 309 310 310
287 287 287 287 286 285 284 284 284 283 284 282 282 282 282 282 282 280 280 281 279 278 278 278 278 278 278 278 280 278 277 277 276 276 277 277 276 277 278 277 277 278 279 278 279 279 279 280 279 279 279 280 280 280 280 281 285 286 289 292 294 295 295 294 294 297 299 300 301 302 302 303 303 304 304 304 305 305 306 307 307 308 308 309 309
287 287 287 286 286 285 284 284 283 283 283 282 282 282 281 281 282 280 279 281 279 280 278 278 279 278 279 278 279 278 277 276 277 276 275 276 276 276 276 276 277 277 278 278 278 278 278 278 279 279 279 279 280 280 280 280 280 280 284 292 293 294 294 293 293 294 295 296 299 300 301 301 302 302 303 303 304 304 305 306 306 307 307 308 308
287 286 286 286 286 285 284 284 283 283 284 283 282 281 281 281 281 280 279 280 279 278 279 279 278 278 277 276 277 276 276 277 277 276 275 275 275 275 275 276 276 277 277 277 277 278 279 279 279 280 281 281 279 279 280 280 280 280 289 290 291 292 293 292 292 293 293 293 295 297 299 300 300 301 302 302 303 304 304 305 305 306 306 307 307
286 286 286 286 286 285 284 284 283 283 284 283 282 281 281 281 281 281 280 279 278 279 279 279 279 279 279 278 276 276 276 276 276 276 275 275 276 275 275 275 275 276 277 277 277 277 278 278 278 278 278 278 279 278 279 279 280 283 286 288 289 289 290 290 291 292 292 292 293 294 295 297 298 299 300 301 302 303 303 304 304 305 305 306 306
286 285 286 285 285 285 284 284 284 284 284 282 282 281 281 281 281 280 280 280 279 278 281 278 279 279 278 279 279 279 278 276 276 276 275 275 274 275 275 276 275 275 276 277 278 278 278 278 277 277 277 278 278 278 278 279 285 285 285 286 287 287 289 290 290 290 291 292 292 293 293 294 295 296 298 300 301 302 303 303 303 304 304 305 305
286 285 285 285 285 284 284 284 283 283 283 283 282 282 281 281 280 280 280 280 279 279 279 278 278 278 278 278 278 279 278 277 278 278 277 276 276 274 274 275 275 275 277 276 277 277 276 277 277 277 278 278 279 279 281 280 282 285 282 283 285 286 288 289 289 289 290 291 291 291 292 293 293 293 295 297 299 300 302 302 302 303 303 304 304
285 285 285 284 284 284 283 283 283 283 283 282 282 281 281 280 280 280 280 279 279 279 279 279 279 279 279 278 277 278 277 277 278 278 277 277 276 274 275 275 274 274 275 275 275 276 277 277 277 277 277 278 279 279 278 278 280 283 283 281 283 284 285 286 287 288 290 290 290 291 291 291 292 293 294 295 297 299 300 300 301 301 302 302 303
286 286 286 285 285 285 284 283 283 283 283 282 282 281 281 280 280 280 280 280 279 279 279 279 278 278 278 278 277 277 277 277 278 278 277 277 275 275 274 274 274 274 275 274 275 275 276 277 276 277 277 277 278 277 277 278 278 283 282 279 279 282 283 285 287 288 289 289 290 290 290 290 291 291 292 295 296 296 297 299 300 300 301 301 301
287 286 286 285 285 284 284 283 283 282 282 282 282 281 281 280 280 280 280 279 279 279 278 278 278 278 277 278 277 277 277 277 278 278 278 278 277 276 275 274 273 273 273 274 274 275 275 276 276 277 276 278 277 276 276 276 279 282 281 276 276 280 282 284 286 288 288 288 289 289 289 289 289 291 291 292 294 294 296 297 298 299 299 299 298
287 286 286 285 284 284 284 283 283 282 282 282 281 281 280 280 279 279 279 280 279 278 278 278 278 278 278 277 277 277 277 277 277 277 277 277 276 277 276 275 275 273 273 273 273 274 276 275 276 276 277 277 277 277 279 277 277 281 280 276 276 276 280 283 286 287 287 288 288 288 288 288 289 290 290 290 291 292 293 294 295 295 295 295 295
286 286 285 285 285 284 283 283 283 282 282 282 281 280 280 280 280 279 279 279 279 278 278 278 278 278 277 277 277 277 277 277 277 277 277 277 277 276 277 276 275 274 271 272 273 273 274 275 275 275 276 276 276 277 276 274 278 279 276 276 275 275 278 282 285 285 286 287 287 287 288 288 289 289 289 290 291 291 292 293 293 293 294 294 295
286 286 285 284 284 284 284 283 282 282 281 281 281 280 280 280 280 279 279 278 278 278 278 278 277 277 277 277 277 277 277 277 277 277 277 277 276 276 276 276 276 276 274 273 273 274 273 275 275 275 275 275 276 277 276 275 279 279 276 276 275 275 280 282 283 284 285 286 286 287 288 288 288 289 289 289 290 291 292 293 293 293 294 295 295
285 285 285 284 284 284 284 283 282 281 281 281 281 280 280 279 279 279 278 278 278 277 277 277 277 277 277 276 276 276 276 276 276 276 276 276 276 276 276 276 276 275 275 273 270 273 275 274 275 275 274 274 276 275 276 276 277 278 276 275 275 278 280 279 280 282 284 285 285 286 287 288 288 288 289 289 290 291 291 292 292 292 292 293 295
285 285 285 284 284 284 284 283 282 281 281 281 280 280 280 279 279 279 278 278 278 277 277 277 277 277 276 276 276 276 276 276 276 276 276 276 276 276 276 275 275 275 275 274 273 274 275 273 274 274 274 274 275 274 274 275 276 278 275 275 276 279 277 276 279 281 282 284 285 286 287 288 288 289 289 289 290 290 290 291 291 291 291 292 294
285 284 284 284 284 284 283 283 282 282 281 281 280 280 280 279 279 279 278 278 277 277 277 276 276 276 276 276 276 276 276 275 275 275 275 275 275 275 275 275 275 275 274 274 272 272 274 274 274 274 274 274 273 274 274 274 274 274 277 275 275 275 275 275 276 279 282 283 285 286 287 287 288 288 288 289 289 289 290 290 290 290 291 292 292
284 285 284 284 284 284 283 283 283 282 281 281 280 280 280 279 279 279 278 278 277 277 276 276 276 276 276 276 275 275 275 275 275 275 275 275 275 274 274 274 274 274 275 273 273 272 272 272 272 273 272 274 272 274 273 273 273 275 274 275 275 275 275 275 275 276 281 283 284 285 286 287 287 288 288 288 288 289 289 289 290 290 290 291 291
284 284 284 284 284 283 283 283 282 282 281 281 281 280 280 279 279 278 278 278 277 277 276 276 276 276 275 275 275 275 275 274 274 274 274 274 274 274 274 274 273 273 274 274 272 270 271 270 272 271 272 272 272 272 273 274 274 274 274 274 275 276 276 276 276 276 280 283 284 285 286 286 287 287 287 287 287 288 288 289 289 289 289 290 290
284 284 284 284 284 283 283 282 282 282 281 281 281 280 280 279 279 278 278 277 277 277 276 276 276 275 275 275 275 274 274 274 274 274 274 274 274 273 273 273 273 272 272 272 272 271 270 268 270 270 272 271 272 273 274 274 274 274 274 274 275 275 275 276 276 275 278 282 284 284 285 285 285 285 286 286 287 287 287 288 288 288 289 289 289
284 283 284 284 283 283 283 282 282 282 281 281 280 280 280 280 279 278 278 277 277 277 276 276 277 275 275 275 275 274 274 273 273 273 273 273 273 272 272 272 272 272 271 271 271 271 270 269 269 271 272 272 273 273 274 273 273 274 274 274 274 275 275 275 276 277 280 282 282 282 283 283 284 284 285 285 286 286 287 287 288 288 288 288 288
284 284 284 283 283 283 283 283 282 282 281 281 280 280 279 279 279 278 277 277 277 277 276 276 276 276 275 275 274 274 274 273 273 273 273 272 272 272 271 271 271 271 270 270 270 270 270 269 269 269 271 271 272 272 273 274 273 273 273 274 274 275 274 274 275 277 277 278 277 278 280 281 282 283 284 285 285 286 286 287 287 287 287 286 287
284 283 283 283 283 283 283 283 282 282 281 281 280 280 279 279 278 278 277 277 276 276 276 276 276 276 275 275 274 274 274 274 273 272 272 272 271 271 271 271 271 270 270 270 270 269 269 269 270 270 271 272 272 271 274 274 274 274 272 273 273 275 275 275 275 276 276 277 279 281 280 281 282 281 282 283 284 285 285 286 286 286 285 285 286
284 284 283 283 283 283 283 282 282 282 281 280 280 279 279 278 278 277 277 277 276 276 276 275 275 275 275 275 274 274 274 274 273 273 272 271 271 270 271 271 270 270 270 270 269 269 269 269 269 269 271 272 272 273 274 274 272 273 274 274 272 273 273 274 274 274 275 276 276 276 279 280 280 280 282 282 282 283 284 283 284 283 283 284 284
284 284 284 283 283 282 282 282 282 281 281 280 280 279 278 278 278 278 277 277 276 275 275 275 274 274 274 274 274 274 274 276 276 275 274 274 271 270 270 270 270 270 269 269 269 270 270 270 270 272 272 272 273 272 272 272 272 272 274 274 273 273 273 274 274 275 276 275 275 276 276 277 276 276 277 276 277 279 280 281 282 282 282 283 284
284 284 283 283 282 282 282 282 282 281 281 281 281 283 282 279 278 277 277 276 276 275 275 274 274 274 274 273 274 276 277 277 277 277 277 277 276 272 271 271 270 269 269 268 269 269 270 269 270 271 272 271 272 273 273 273 274 274 273 273 271 273 274 274 275 275 276 276 275 274 275 277 275 275 275 275 277 278 277 277 277 279 281 284 285
283 283 282 282 282 282 282 282 281 281 281 281 283 285 285 284 279 277 276 276 275 275 274 273 273 273 273 272 272 275 276 277 276 278 278 278 277 276 276 275 274 271 269 269 269 271 270 270 272 272 272 272 273 274 273 274 274 273 272 273 273 273 272 271 270 274 278 276 274 273 272 274 274 272 273 274 275 276 276 276 280 281 282 284 285
283 282 282 282 282 282 282 282 281 281 281 283 284 285 285 285 282 278 277 276 275 275 274 273 273 272 272 272 272 273 274 274 274 276 277 279 278 278 278 277 277 277 276 273 271 271 272 272 272 273 273 273 273 274 274 274 273 273 274 274 274 273 272 272 272 272 276 276 272 270 270 273 273 272 272 273 274 275 275 278 281 281 282 283 284
282 281 282 282 282 282 282 281 281 281 280 283 285 285 285 285 284 280 277 276 275 275 274 273 273 272 272 271 271 272 273 276 275 274 275 276 279 279 278 278 278 278 279 279 278 275 275 274 273 273 274 274 273 274 274 273 275 273 274 274 274 274 274 273 273 273 274 274 271 269 268 271 272 271 271 273 273 274 274 277 279 281 283 283 284
282 282 282 282 282 281 281 281 281 281 280 283 285 285 285 286 285 282 277 276 275 275 274 273 273 272 272 271 271 271 272 274 274 274 275 275 276 276 276 276 276 278 280 280 280 280 279 276 275 273 274 274 273 274 275 276 275 273 274 274 275 274 273 272 273 272 272 272 269 268 267 269 271 270 270 271 273 273 273 276 280 281 282 283 283
282 282 282 281 281 281 281 280 280 280 280 283 285 285 286 286 286 283 276 275 274 274 274 273 273 272 272 272 271 271 272 273 274 274 275 275 276 275 276 276 277 277 278 278 278 277 277 275 274 274 274 275 275 275 276 276 276 275 276 275 274 272 272 272 270 270 270 271 270 269 264 268 270 269 269 270 272 272 273 277 279 280 281 281 282
282 282 281 281 281 280 280 280 279 279 279 283 284 285 286 286 286 281 276 274 273 273 273 273 272 272 272 272 272 272 273 274 276 278 277 275 274 274 274 274 274 274 274 276 277 277 275 274 275 275 276 276 278 277 277 278 278 278 277 274 272 269 266 265 264 266 266 270 271 268 266 266 270 268 269 271 272 271 272 273 277 279 280 280 281
281 280 280 280 280 280 280 279 279 278 277 281 284 285 286 286 285 278 274 273 273 272 272 272 272 272 272 273 273 273 274 274 277 280 280 278 272 272 271 270 270 271 271 274 277 278 278 279 279 279 280 280 281 281 280 280 278 277 273 270 267 265 262 262 263 264 264 268 269 269 267 265 268 269 269 270 270 271 271 272 272 276 278 279 280
279 279 279 279 278 278 278 278 278 277 276 279 283 285 285 286 284 276 274 273 272 271 271 272 272 273 273 276 275 274 274 274 279 281 281 278 272 272 271 270 269 270 271 273 275 276 279 280 280 280 280 279 278 278 277 276 276 276 270 266 265 263 262 261 261 263 264 266 267 270 264 265 268 270 268 269 270 270 271 272 272 273 276 277 278
278 278 277 277 276 276 276 277 278 277 276 277 283 284 285 286 283 275 274 272 271 271 271 271 272 273 274 276 277 276 275 276 280 281 282 278 272 272 271 270 270 270 271 274 273 272 274 274 274 273 274 274 272 271 272 274 273 272 269 267 264 261 261 261 261 261 261 262 268 270 265 265 267 269 269 266 265 268 271 271 271 271 272 272 272
Wind_Speed
7 6 5 5 4 5 5 6 5 6 5 5 6 6 5 5 5 4 4 3 3 3 3 3 3 3 4 4 3 3 3 4 3 3 4 4 5 6 11 11 11 12 12 12 12 12 12 10 10 9 10 12 12 12 12 12 12 13 12 11 12 14 14 14 14 15 15 15 15 16 16 16 16 16 15 15 15 14 14 14 14 14 15 15 16
7 6 6 6 5 4 4 5 6 5 5 6 5 6 6 5 4 4 4 3 3 3 3 4 3 3 4 4 4 3 3 3 3 3 3 3 4 4 10 11 12 12 13 12 13 12 13 12 11 9 10 11 12 12 12 12 13 13 12 12 12 14 14 14 14 15 16 16 16 16 16 16 16 16 16 16 16 15 15 14 14 14 14 14 14
6 7 5 5 5 5 5 4 6 5 4 5 3 5 5 5 5 5 5 5 4 3 4 5 4 4 3 4 3 3 3 2 2 3 3 4 3 4 4 10 12 12 13 13 13 14 14 14 13 11 12 13 13 13 12 12 13 13 12 13 13 14 14 14 14 16 16 17 17 16 16 16 16 16 17 17 17 17 17 16 16 15 15 14 14
7 6 6 6 5 5 5 5 5 4 3 4 5 4 4 3 3 3 3 3 4 3 2 5 4 4 3 3 2 2 2 1 2 2 2 3 3 4 4 5 9 12 12 14 14 14 14 14 14 14 14 14 14 14 13 12 13 13 14 14 14 14 15 14 15 16 16 17 17 17 16 17 17 18 18 18 18 17 17 17 17 17 17 16 16
7 7 6 6 5 5 5 4 4 4 3 4 4 4 5 4 3 3 4 3 3 2 2 3 5 3 3 3 2 3 1 2 2 2 3 3 4 3 5 4 4 8 11 13 14 14 14 15 15 15 15 15 15 14 13 12 13 13 14 14 13 14 16 15 16 16 16 17 17 17 18 17 17 17 18 18 18 18 18 18 17 17 17 17 17
8 7 6 6 6 5 5 5 4 4 4 5 6 5 6 5 4 4 3 3 4 2 3 5 4 3 4 2 3 2 1 2 2 2 2 3 3 4 4 4 5 5 5 10 13 14 14 15 15 15 15 14 14 14 14 14 13 14 14 15 15 15 15 16 16 16 17 17 18 17 17 17 17 17 17 18 18 18 18 18 18 18 18 18 18
7 8 7 7 6 6 5 6 5 4 5 5 5 4 4 5 4 5 3 4 3 3 3 4 3 5 4 3 3 2 2 2 1 2 3 3 3 3 4 4 5 4 5 5 7 11 13 14 14 14 14 13 13 13 14 14 13 14 14 15 15 15 14 14 15 16 17 17 18 17 17 16 16 17 17 18 18 18 18 18 19 19 19 19 19
8 8 8 7 7 7 6 5 4 5 5 4 4 5 4 4 1 3 6 2 3 3 2 3 3 4 3 3 3 2 3 2 3 3 2 3 5 4 5 4 4 4 4 6 6 6 12 12 13 14 14 13 13 13 14 14 13 13 13 14 14 14 14 15 15 16 17 17 17 17 17 16 16 17 17 17 18 18 18 18 19 19 19 19 20
9 9 8 8 7 6 6 5 4 5 5 5 5 4 4 4 1 0 1 4 3 3 2 3 4 3 3 3 3 3 3 3 2 3 2 5 4 5 5 4 3 5 5 5 5 6 8 12 12 14 14 14 13 14 15 14 14 13 13 13 13 14 15 15 16 16 16 16 16 16 16 16 16 17 17 18 18 19 19 19 20 20 20 20 20
9 9 8 8 7 7 6 6 6 5 5 5 5 4 3 3 4 2 2 4 4 3 2 2 3 3 4 4 4 4 3 3 3 3 5 5 5 5 3 3 4 5 5 5 5 6 4 7 11 12 14 15 15 15 15 15 14 13 13 13 13 14 15 15 15 15 15 15 15 15 15 15 16 16 17 17 18 18 19 19 19 19 20 20 20
10 10 9 8 7 7 7 6 6 6 6 6 5 5 4 3 4 4 3 3 4 2 2 2 4 4 5 4 3 3 3 3 3 6 5 4 4 3 3 5 4 4 5 5 4 4 5 5 6 6 7 14 15 16 16 15 15 14 14 13 14 14 14 14 14 15 15 14 15 16 16 16 16 16 16 17 17 18 18 19 19 19 20 20 20
10 10 9 9 8 8 7 7 7 7 7 7 7 7 8 6 4 5 5 3 3 1 1 3 4 6 4 5 4 3 4 4 5 4 3 3 3 2 5 3 5 4 4 3 4 5 6 5 5 6 5 8 13 15 15 15 15 14 14 14 14 14 14 14 15 14 15 15 16 16 17 17 17 18 18 18 18 18 18 18 19 19 20 20 20
9 10 10 9 8 7 8 7 7 7 8 9 7 7 5 5 6 3 4 3 1 1 0 2 4 3 3 5 5 3 2 2 4 4 4 2 1 3 3 5 4 5 3 4 5 5 5 5 5 5 5 4 5 10 13 14 14 15 15 14 14 14 14 14 15 14 15 16 16 17 17 18 18 18 18 18 18 19 19 19 19 19 19 19 19
10 10 9 10 9 9 9 9 9 8 7 4 5 5 5 5 6 4 1 3 2 2 1 2 3 3 4 1 4 3 2 1 2 3 3 3 3 3 3 5 4 3 4 5 5 4 4 4 4 5 4 4 3 4 5 6 8 14 14 14 14 14 14 14 15 15 16 17 17 17 18 18 18 19 19 18 19 19 19 19 20 20 20 19 20
10 11 10 10 10 10 10 9 9 8 8 8 7 7 7 8 8 8 5 1 1 1 1 2 4 1 2 5 0 1 1 1 1 2 4 2 2 3 2 4 3 4 4 5 5 4 3 4 4 4 4 3 3 3 4 5 6 12 13 13 13 14 14 15 16 16 17 17 18 18 18 18 18 19 19 19 19 19 19 19 20 20 20 21 20
11 11 10 10 11 11 9 9 9 9 10 10 9 9 8 8 8 5 6 5 2 2 1 1 4 8 2 1 1 2 1 4 2 3 1 1 2 2 2 3 3 4 5 6 4 4 3 3 4 4 3 3 3 3 4 4 6 8 9 10 11 13 14 14 16 16 17 17 18 18 18 18 18 18 18 19 19 19 19 19 20 20 21 21 21
11 12 11 12 11 10 10 10 10 9 9 9 10 11 11 9 10 8 9 8 7 2 1 1 1 2 6 5 2 0 4 1 1 2 1 1 1 2 1 2 2 3 5 4 3 4 4 4 4 4 4 3 3 3 3 3 4 3 5 7 8 12 13 15 16 16 17 17 18 18 18 18 18 18 19 19 19 19 19 19 19 20 20 20 21
11 12 12 11 11 11 11 11 10 10 9 9 8 6 8 10 11 10 9 4 7 6 3 0 1 2 1 1 3 3 4 2 2 3 1 1 2 2 1 2 0 3 3 3 4 4 3 4 3 4 4 4 3 3 3 3 2 3 3 5 10 11 12 14 16 17 17 18 18 18 17 18 18 18 19 19 19 19 19 19 19 19 19 20 20
12 12 12 11 11 11 11 11 11 10 9 8 8 11 10 10 7 7 8 6 6 6 9 6 2 2 2 2 3 2 4 7 5 2 2 1 1 0 1 2 2 1 1 2 3 2 3 3 3 5 4 4 3 3 3 3 4 5 7 7 9 11 12 15 16 16 17 17 17 17 17 17 18 18 19 19 20 20 20 19 20 20 20 20 20
11 11 11 12 11 11 11 11 11 10 10 10 11 9 7 5 6 6 5 6 8 8 8 9 9 4 1 3 4 4 3 4 3 6 4 2 2 1 1 3 3 1 1 3 3 2 3 3 3 5 4 4 3 3 3 3 3 3 4 6 9 10 13 15 15 15 15 16 16 16 17 17 18 18 19 19 19 20 20 20 20 20 20 20 20
10 11 11 12 11 12 12 12 11 11 11 10 8 9 11 10 9 9 9 7 7 4 8 9 6 8 7 2 4 4 4 4 2 3 4 4 4 2 4 3 2 3 2 2 2 1 3 3 3 4 3 3 3 2 2 1 2 2 3 8 9 11 13 14 14 14 14 14 14 15 16 17 18 18 19 19 19 19 20 20 20 20 20 20 20
10 11 11 12 13 12 12 14 13 12 11 11 10 10 10 10 11 10 8 8 6 6 9 8 7 7 8 9 6 4 4 2 1 2 2 1 4 4 3 2 3 2 1 3 3 3 3 3 4 3 3 4 3 2 1 1 1 2 5 9 10 12 14 15 14 14 13 13 14 15 15 16 17 18 19 19 20 19 19 20 20 20 20 20 20
10 10 13 13 12 12 13 12 11 11 11 11 12 12 11 10 9 8 8 10 8 8 4 5 7 7 7 9 11 12 11 8 9 6 5 4 2 3 3 3 3 4 3 0 1 4 4 4 4 4 3 3 2 1 0 1 3 5 9 10 11 13 14 15 14 13 13 13 14 14 15 15 16 17 18 19 19 20 20 20 20 20 19 20 20
10 10 11 12 11 11 10 11 11 11 13 12 11 11 9 8 8 9 9 8 6 7 7 8 8 7 8 7 7 7 5 6 8 10 10 7 7 5 6 1 3 5 5 3 3 5 3 4 3 3 3 1 1 0 2 3 3 8 5 10 12 13 15 15 14 13 13 13 13 14 14 15 16 17 17 18 18 19 19 19 19 19 20 20 21
12 13 13 13 11 11 12 12 11 12 11 10 10 10 10 10 10 10 9 11 11 10 9 11 12 11 11 7 5 6 6 2 7 8 4 5 6 6 2 3 4 2 2 1 2 2 4 4 3 3 1 0 1 4 3 3 2 5 7 6 12 13 14 14 14 14 14 13 13 14 14 15 16 16 17 18 18 18 18 19 20 20 20 20 20
15 16 14 14 13 14 12 12 11 9 10 11 10 10 10 10 10 11 12 10 7 9 9 7 8 6 4 8 7 7 5 5 6 7 8 8 5 7 6 3 2 4 2 1 1 1 1 2 2 2 2 3 3 3 3 2 2 5 8 5 7 11 13 14 15 14 14 14 14 15 15 15 15 16 17 18 18 19 19 19 20 20 20 20 21
13 12 10 14 14 12 13 13 12 11 10 10 9 9 10 9 9 10 8 7 8 8 7 8 9 8 7 8 7 6 6 6 6 7 7 8 8 8 9 6 3 3 2 4 3 4 3 0 0 1 2 4 4 3 3 2 3 7 7 3 3 9 12 14 14 15 14 15 15 15 15 15 15 16 17 18 18 19 19 20 20 21 21 22 22
10 10 12 13 14 14 12 13 12 12 12 11 10 10 10 10 9 8 10 6 9 9 8 7 8 8 8 6 6 7 6 6 6 6 6 5 5 6 6 5 5 4 1 1 2 3 3 3 1 1 2 4 3 3 3 3 1 6 6 4 5 6 12 15 16 15 16 15 16 15 16 16 16 17 17 18 18 19 20 20 21 21 22 23 23
10 10 11 12 12 13 13 13 13 13 12 12 12 11 10 10 10 10 11 8 8 10 7 8 7 7 6 8 8 7 6 5 5 5 5 5 5 5 6 7 7 5 1 1 3 4 3 4 4 2 3 4 4 2 1 1 3 4 2 3 4 4 10 16 16 17 17 17 17 17 17 17 17 18 18 19 19 19 20 20 21 22 23 23 24
10 9 11 12 13 14 13 13 12 12 13 12 12 12 11 10 11 10 9 8 9 7 7 7 7 7 6 6 6 7 6 7 7 6 6 6 6 6 6 4 5 8 6 6 6 4 4 3 1 3 3 3 2 2 3 2 4 4 3 4 4 4 12 15 16 16 17 17 18 18 18 18 18 18 19 20 20 21 21 21 22 22 23 24 25
11 12 12 13 13 13 13 13 12 13 12 12 12 12 12 11 10 10 8 9 9 9 8 8 7 8 9 9 7 7 7 7 7 6 6 6 7 6 6 5 4 4 8 5 2 5 4 3 1 2 2 1 1 2 1 1 3 5 4 4 4 10 14 11 15 16 17 18 18 18 18 19 19 19 20 20 21 21 22 22 22 23 24 25 26
11 12 13 14 15 15 14 14 14 13 13 12 13 12 12 11 11 10 9 10 10 10 8 7 7 8 9 10 9 8 8 7 7 7 7 6 6 7 7 6 5 4 6 6 7 8 2 3 0 1 4 4 5 6 4 4 4 7 4 5 6 10 7 6 10 14 16 17 17 18 19 19 20 20 19 21 21 22 22 23 24 24 25 26 26
11 13 14 15 15 15 14 14 15 14 14 14 12 12 12 12 11 11 10 11 12 9 8 9 7 8 9 9 9 7 8 9 8 7 7 7 7 6 6 6 7 6 8 8 8 7 4 1 2 2 4 5 6 5 8 7 9 8 8 7 7 6 6 6 6 11 16 18 18 19 19 19 19 19 20 20 21 22 23 23 24 24 25 25 26
9 13 13 13 13 14 14 15 14 14 14 15 14 13 14 14 13 10 11 13 12 11 10 11 10 9 9 9 9 8 8 9 8 9 8 8 8 8 8 9 8 9 8 8 7 6 8 1 1 2 2 1 3 4 5 6 8 8 9 9 7 7 7 7 7 7 16 19 20 21 21 21 20 21 21 22 22 23 23 23 24 24 24 25 26
10 10 11 12 13 14 14 14 14 14 15 15 14 14 15 16 16 14 13 14 14 13 13 13 12 10 10 10 10 9 7 9 9 8 8 9 8 9 9 8 8 8 8 7 7 7 6 4 2 1 2 3 3 5 6 6 7 7 9 9 8 7 6 6 6 5 12 17 19 19 20 21 22 22 22 22 22 23 24 24 24 24 24 25 25
11 10 9 11 11 14 15 14 15 15 16 15 15 16 16 16 16 16 14 14 13 13 13 13 12 12 13 11 11 11 10 11 10 9 8 8 9 8 8 7 7 7 7 6 6 5 4 5 2 4 3 3 4 6 7 7 7 7 8 9 8 8 7 6 6 6 8 15 17 18 19 20 21 21 21 22 22 22 23 23 24 25 25 26 26
11 10 11 11 12 13 14 16 17 17 16 16 16 15 15 15 15 14 15 14 14 14 14 13 12 13 13 13 12 12 11 11 9 10 9 11 9 8 8 7 7 6 6 6 6 5 6 6 4 4 5 5 5 6 7 7 7 7 8 8 7 7 7 6 5 6 11 15 15 18 19 20 20 20 21 21 21 22 23 24 25 25 26 27 27
11 12 14 13 13 14 14 15 16 16 15 15 17 17 17 15 15 14 14 14 14 14 13 13 13 13 13 12 12 12 13 14 13 11 10 12 9 9 9 8 7 6 7 6 6 6 6 6 6 6 5 5 4 5 6 7 7 7 6 6 5 5 4 3 4 4 3 4 6 7 10 12 14 19 19 19 21 23 24 24 25 26 26 27 28
14 14 13 14 14 15 16 14 15 15 16 16 16 15 15 15 15 15 14 14 14 13 13 14 14 13 13 13 13 14 15 14 13 13 13 11 10 10 9 9 8 8 7 7 7 7 7 6 6 6 5 5 6 6 6 7 8 7 7 5 4 2 3 4 7 5 5 6 8 14 13 13 15 13 16 21 22 23 23 24 25 26 27 28 28
14 14 15 16 14 13 15 14 14 12 14 14 14 14 14 15 15 16 16 15 15 14 13 13 13 14 14 13 13 14 14 13 13 12 12 12 10 10 9 8 9 9 8 7 7 7 7 7 6 6 6 6 5 6 6 5 5 5 4 3 7 7 7 5 6 9 6 6 7 5 6 8 9 13 18 18 20 22 23 23 25 26 28 27 28
12 13 12 12 12 13 12 13 14 13 14 15 14 15 16 16 16 16 17 17 16 15 13 13 12 13 12 12 12 13 13 13 15 13 13 12 11 11 9 10 10 9 7 7 7 7 6 6 5 6 6 6 6 5 5 4 3 4 3 3 6 6 7 7 4 4 7 7 6 5 5 4 8 8 8 8 7 14 17 22 19 23 24 25 27
12 10 10 11 13 14 14 14 14 13 14 12 13 20 19 16 16 14 13 14 15 15 15 14 13 13 13 12 12 17 18 18 18 18 19 19 16 12 11 12 11 10 9 9 8 7 7 7 6 6 6 5 5 5 3 3 2 1 2 4 6 6 7 8 6 3 4 6 6 7 7 7 10 10 8 9 7 10 10 9 9 13 19 25 27
11 11 11 13 15 14 14 14 14 13 13 11 16 23 24 24 17 15 14 14 13 14 14 15 15 14 12 11 10 15 16 17 16 21 20 20 20 19 18 17 14 13 12 10 9 9 8 7 7 7 6 5 4 3 2 3 1 0 3 4 6 8 8 10 11 5 3 5 8 10 13 8 8 9 5 7 9 9 8 8 17 22 25 27 29
10 9 12 15 13 12 12 13 14 14 13 12 20 23 25 25 20 15 13 13 13 14 14 15 14 14 14 12 12 11 12 14 13 15 18 21 21 20 20 19 19 18 15 11 11 10 10 8 8 8 7 6 4 2 3 1 2 2 4 6 7 8 9 10 10 11 5 8 13 12 13 7 8 8 7 6 8 9 10 17 23 25 26 27 27
8 11 12 11 13 13 13 15 15 14 13 15 22 24 25 25 25 19 12 13 14 14 15 15 15 15 13 13 12 11 10 20 15 12 12 14 18 21 19 20 20 21 20 19 15 9 9 9 8 7 6 4 4 4 2 1 4 6 6 6 7 7 8 9 8 10 10 8 12 12 12 7 7 9 9 7 8 10 11 14 22 25 27 27 27
9 11 11 13 12 12 14 15 14 13 14 15 24 25 26 27 26 21 13 14 13 14 15 15 13 14 15 14 14 11 10 13 12 13 12 12 12 12 12 12 11 17 19 20 20 19 14 8 7 7 4 3 4 2 3 5 5 5 5 5 6 6 5 6 9 10 10 7 9 11 14 1 1 10 12 8 7 10 10 16 24 24 27 28 28
11 12 12 13 13 12 12 12 12 12 12 17 23 25 25 26 26 22 12 12 11 11 11 12 13 13 14 13 11 10 12 13 12 16 13 13 12 12 12 12 12 11 11 11 11 7 6 3 4 4 2 2 3 6 7 5 6 6 5 5 3 3 6 7 7 8 8 3 5 6 10 9 5 10 15 9 9 11 7 14 23 26 29 30 32
8 7 8 8 11 12 12 12 13 13 10 18 22 24 26 25 26 15 12 12 12 11 11 12 11 10 11 12 10 10 11 11 17 24 18 13 11 13 12 10 8 7 6 5 7 6 4 3 3 4 5 7 10 8 7 6 4 3 2 3 4 4 5 7 9 5 6 3 3 5 9 11 7 9 17 11 7 12 11 10 19 27 27 27 30
8 9 10 10 10 11 12 12 13 12 9 16 23 24 26 27 20 12 12 11 11 12 12 11 12 12 12 11 10 9 11 11 19 24 23 19 11 13 11 10 7 6 6 6 12 15 14 15 14 13 13 14 12 10 9 9 5 3 3 5 5 1 3 8 11 6 7 5 5 5 7 11 8 8 14 16 11 13 13 12 9 17 24 26 28
9 10 9 9 8 9 11 12 13 12 10 14 24 24 26 28 19 14 12 13 12 11 10 11 10 10 12 19 15 10 11 11 21 24 24 19 12 13 11 11 10 9 8 6 6 8 16 16 15 14 11 9 9 7 3 3 5 6 1 5 3 1 5 4 9 9 8 5 9 6 2 5 9 8 12 15 18 11 8 10 12 10 17 21 26
9 7 6 7 7 7 8 10 9 12 9 12 22 24 26 27 19 12 12 11 12 12 11 10 9 9 11 15 20 14 11 15 24 25 26 20 12 13 13 11 11 11 9 9 7 6 6 5 4 1 4 5 1 3 1 5 6 6 3 5 3 3 5 5 6 7 10 2 4 2 5 6 9 10 9 13 16 20 5 6 10 11 10 13 14
Wind_Direction
165 168 153 165 159 154 153 145 133 133 124 116 128 131 124 125 124 125 116 118 121 121 119 93 79 71 80 72 63 54 43 35 31 22 22 17 11 1 13 19 24 29 26 29 38 37 38 38 36 36 37 38 37 38 39 43 42 42 40 44 50 48 44 39 38 36 34 32 28 25 24 23 21 19 17 17 15 13 12 11 10 10 9 7 6
166 161 163 169 165 153 144 145 139 139 133 138 146 137 143 133 129 133 137 146 145 160 136 117 88 77 71 73 58 54 44 37 29 25 19 25 17 9 11 18 22 28 28 33 36 38 40 38 34 34 35 33 32 36 35 37 39 38 38 41 46 45 41 38 37 36 33 29 25 23 21 20 18 16 15 14 14 12 11 9 8 7 7 6 6
162 164 166 162 163 158 153 144 138 151 144 139 138 140 138 146 153 154 158 157 158 161 147 113 99 78 73 75 71 65 47 31 38 33 32 25 26 24 12 19 22 27 29 36 37 39 39 34 35 38 35 30 28 31 34 37 37 36 36 40 40 39 37 36 36 33 31 28 25 22 20 19 17 16 14 13 11 9 9 8 8 7 6 5 5
162 167 166 164 167 165 157 154 162 154 144 138 139 128 132 129 131 142 159 154 136 127 128 110 93 86 89 80 87 79 57 45 56 53 53 42 35 33 30 25 22 31 33 34 37 37 38 37 36 34 30 26 24 26 33 38 36 37 35 35 36 36 35 33 32 30 29 28 26 22 20 19 18 16 13 11 8 6 4 3 3 5 4 3 3
169 169 166 164 161 161 163 171 161 152 137 135 127 122 118 127 138 151 148 149 126 103 117 95 83 73 79 74 84 70 58 70 66 70 61 61 56 48 47 40 36 33 32 37 35 37 39 38 36 31 27 23 21 26 32 34 33 32 31 33 32 34 32 31 27 26 27 28 25 21 19 18 17 15 12 9 7 5 4 2 1 1 0 359 358
162 166 159 159 160 168 170 172 163 151 138 136 139 147 143 144 158 139 126 117 96 68 76 57 47 64 61 55 64 53 50 60 64 74 87 73 80 73 63 57 48 46 41 36 37 39 41 40 37 34 30 26 25 25 28 29 28 28 29 32 32 31 28 26 24 24 26 24 21 18 17 16 14 13 11 8 7 5 4 2 2 2 0 358 356
168 163 164 163 164 171 180 178 158 150 148 156 146 148 145 152 154 123 106 84 84 66 74 80 60 50 40 40 41 42 33 53 40 53 61 81 73 69 72 67 61 64 59 53 41 37 44 44 42 38 33 30 27 27 29 30 28 28 29 30 29 28 29 26 26 26 24 21 18 17 15 14 12 11 10 8 6 6 4 4 3 2 1 359 356
169 166 164 171 171 177 180 162 161 151 152 149 143 153 149 140 154 149 119 88 92 54 42 62 54 52 39 45 32 48 49 39 47 50 39 55 59 65 66 69 75 75 72 65 59 39 44 46 44 38 33 29 29 30 29 29 26 26 28 29 29 29 30 29 28 25 21 18 18 17 15 13 12 10 9 7 6 4 3 3 2 1 0 359 357
172 171 166 170 172 173 170 166 158 156 153 156 155 156 152 148 143 4 87 141 114 113 36 48 48 44 39 49 35 46 54 45 50 57 35 57 55 57 58 59 62 63 58 62 54 48 38 45 41 37 26 24 26 28 28 26 22 23 27 28 31 34 34 32 27 21 19 18 17 17 16 13 13 11 10 7 6 4 4 2 0 358 357 356 355
173 172 171 171 169 167 161 162 158 154 153 156 161 150 146 150 134 51 83 113 119 117 94 46 65 57 52 44 29 48 41 48 47 47 61 60 51 51 50 49 57 49 51 52 50 47 47 37 38 34 24 20 24 25 24 24 20 20 24 29 33 35 34 29 24 22 20 19 18 15 14 13 12 10 8 6 4 3 3 0 357 356 355 353 351
175 171 168 166 164 165 164 166 159 157 155 158 157 160 152 150 147 109 72 84 130 145 139 102 76 75 65 37 37 42 37 62 58 62 55 59 65 68 66 48 61 49 52 49 47 51 45 40 36 30 18 17 24 22 21 22 17 18 23 27 30 30 29 27 24 24 22 19 17 16 14 12 10 9 7 6 4 3 1 360 357 354 353 352 350
175 171 167 165 166 170 168 164 166 161 165 169 176 176 171 154 150 137 122 81 42 67 80 110 83 79 73 49 48 43 68 72 64 56 54 46 69 87 74 66 60 55 52 50 54 50 46 40 34 25 23 14 22 22 20 21 14 16 23 23 25 27 27 28 27 26 23 20 17 15 12 10 10 7 6 4 3 0 359 358 356 353 350 349 347
173 167 172 167 167 162 162 171 170 173 180 190 177 170 166 157 146 131 133 111 78 13 94 123 119 75 36 60 44 30 44 69 70 47 35 24 24 69 74 66 47 47 32 49 47 43 43 37 30 26 23 18 16 18 20 19 13 17 22 23 23 26 27 29 28 25 23 19 15 13 11 9 8 5 3 360 359 357 357 355 353 351 348 346 344
172 174 171 169 167 170 174 177 174 182 183 165 166 166 154 154 156 107 41 131 165 204 216 123 40 148 147 77 13 356 40 17 10 8 7 360 22 46 69 69 50 36 31 45 37 37 37 33 29 26 19 23 16 18 15 13 5 18 22 25 22 26 26 30 26 23 20 16 13 11 9 7 5 3 0 358 357 356 355 353 350 349 347 346 345
176 176 173 177 175 171 181 173 178 171 167 175 174 177 176 173 179 159 136 59 137 198 179 202 143 131 109 93 24 63 359 347 20 17 347 338 5 44 53 73 50 55 45 45 30 20 21 24 25 21 12 14 13 19 19 11 5 17 19 20 18 25 26 26 23 18 16 14 11 8 6 4 0 358 356 355 353 352 351 348 346 344 342 341 341
175 177 179 178 177 180 171 174 180 180 178 175 181 185 179 183 185 184 151 137 178 194 124 174 152 140 96 122 178 124 339 250 303 285 323 21 43 31 24 70 45 50 41 29 12 8 5 18 19 9 5 2 4 17 18 11 6 9 5 355 9 28 24 22 18 14 11 9 5 1 360 359 357 355 353 352 349 348 347 345 343 341 339 338 337
178 182 180 182 181 178 175 179 178 181 179 182 187 191 187 186 180 174 190 160 176 182 164 84 96 293 146 110 66 38 218 207 46 284 10 108 349 335 345 38 63 76 53 11 3 6 355 7 6 360 352 353 353 10 10 12 359 7 354 336 8 32 25 19 14 8 5 2 358 356 356 355 354 352 350 348 347 345 343 341 340 338 337 336 335
180 182 185 179 182 181 179 175 180 180 186 190 185 170 187 188 193 187 192 216 152 156 127 91 70 49 21 129 159 171 178 225 121 232 336 248 291 303 294 359 320 76 50 23 359 338 344 349 3 346 340 340 339 352 11 350 360 354 343 332 34 31 28 18 7 1 357 356 354 353 354 353 351 349 346 344 343 343 340 338 337 336 335 335 334
184 184 185 183 180 181 181 182 181 183 183 176 184 194 193 194 177 189 199 170 147 151 164 169 106 32 48 59 81 74 130 132 199 82 308 305 308 295 281 338 353 42 18 1 330 338 321 350 347 333 330 326 330 341 351 352 355 2 353 13 32 31 23 11 1 355 354 353 352 352 352 350 348 346 344 342 341 339 337 335 335 335 334 332 331
184 187 186 184 181 182 182 181 183 185 180 189 193 191 180 187 188 197 179 194 184 164 167 170 162 182 101 85 75 75 60 71 107 160 162 179 276 321 295 335 8 326 296 305 296 278 304 330 337 326 318 316 315 327 337 347 353 346 327 20 37 25 14 4 357 353 352 350 348 348 347 346 345 343 341 339 337 335 333 332 331 330 329 328 327
190 187 188 185 185 185 183 184 185 185 187 189 190 181 187 183 184 187 195 201 203 173 152 184 172 161 138 74 80 56 48 48 68 78 130 150 261 250 269 330 356 309 324 316 273 294 279 292 312 306 298 302 310 303 330 353 337 333 349 46 27 16 7 358 353 350 346 345 344 344 343 343 342 340 338 336 332 331 330 329 327 326 325 324 325
192 190 187 191 190 186 186 189 190 186 187 189 184 184 188 192 192 192 188 191 197 181 183 176 182 162 167 149 134 98 53 17 14 101 55 117 179 207 224 221 296 283 290 307 300 290 287 290 295 284 284 279 287 302 2 339 335 31 34 32 19 8 359 352 348 345 342 341 343 341 340 340 339 337 335 333 331 329 328 326 324 324 323 323 323
187 192 195 192 193 190 190 192 189 187 187 186 191 189 190 189 187 185 191 190 189 188 186 177 165 167 167 170 168 171 172 173 186 184 159 152 120 233 253 242 199 312 288 293 274 280 275 279 268 281 276 287 308 351 7 38 71 54 38 21 9 358 352 348 345 341 339 339 340 338 335 335 335 333 331 329 328 326 324 324 323 323 322 322 322
190 196 199 194 192 192 192 190 191 189 195 193 190 189 183 179 177 187 193 196 185 183 183 172 179 179 186 189 187 178 156 159 173 169 175 189 163 156 172 227 300 228 280 301 266 262 266 257 255 250 263 281 305 184 85 63 41 60 47 13 358 353 347 344 339 334 335 336 334 332 332 331 331 329 327 326 324 323 322 321 321 321 321 321 321
198 198 200 190 187 189 192 194 197 200 196 189 191 183 178 182 185 189 190 190 191 188 183 189 181 181 191 190 167 177 188 162 150 165 161 130 144 123 181 157 198 296 278 283 295 277 227 231 219 246 224 145 138 101 107 68 38 37 43 5 354 345 342 337 332 330 332 332 329 328 328 327 326 325 324 322 321 321 319 317 317 318 319 320 321
193 200 192 185 190 197 191 196 198 195 195 194 188 186 182 185 186 189 195 197 187 191 195 185 187 191 151 169 186 185 177 167 156 153 159 144 151 167 143 191 198 236 260 285 275 354 307 232 249 191 143 149 131 124 111 99 36 22 10 9 341 339 338 330 326 327 330 328 326 325 325 324 321 322 321 320 319 319 317 317 317 318 319 320 320
198 196 178 188 194 190 193 193 191 191 190 192 193 188 187 185 189 195 193 189 192 187 192 180 182 182 178 184 173 171 175 167 160 173 166 176 163 165 154 149 202 198 212 236 269 228 213 304 266 335 137 139 137 130 127 77 29 0 1 351 322 332 332 323 320 325 326 323 321 321 320 318 317 317 319 319 318 317 318 318 319 320 320 321 320
192 182 190 185 190 192 190 195 190 188 189 189 188 189 187 187 189 189 194 183 188 192 194 181 188 182 177 166 161 181 168 168 169 161 170 157 154 155 159 150 170 260 354 15 189 271 197 183 354 251 158 140 148 151 127 96 310 350 354 335 333 326 321 317 319 322 321 318 319 320 317 314 315 314 315 317 317 318 318 319 320 320 320 319 318
190 187 183 190 190 190 191 192 192 190 187 188 187 187 186 191 192 191 195 185 186 194 183 186 188 173 174 178 178 166 170 161 158 159 157 152 161 166 179 171 162 146 161 337 264 179 210 207 146 213 161 150 153 193 109 7 319 335 330 312 304 308 300 309 317 318 316 317 317 316 316 315 314 314 315 317 318 317 317 319 319 320 319 319 317
180 182 182 184 188 190 193 193 193 189 191 187 186 186 184 193 194 195 193 174 185 187 189 183 177 172 171 171 169 169 165 166 170 165 164 165 163 173 184 188 172 164 167 168 252 199 189 203 149 139 165 172 164 189 173 202 264 325 322 309 299 276 293 309 310 309 311 315 315 315 316 315 314 315 316 318 319 319 320 320 320 319 318 317 315
184 181 182 185 187 191 191 193 188 191 189 190 186 186 186 191 191 193 183 177 186 189 187 178 177 169 175 177 173 170 166 168 162 166 167 164 171 168 174 170 196 161 151 131 146 281 157 185 74 78 109 193 225 266 285 267 308 326 313 292 287 288 301 300 298 303 311 314 315 315 316 315 315 315 316 318 319 320 320 321 319 319 318 316 314
192 181 186 188 188 189 192 190 189 187 189 189 186 187 185 193 189 189 185 179 187 191 184 180 171 178 176 181 181 173 168 161 166 171 172 172 166 170 172 173 180 163 145 150 168 242 137 145 146 57 33 349 332 328 333 327 309 315 286 277 275 292 285 268 281 295 305 312 314 316 315 316 317 317 317 320 320 320 320 319 319 317 316 314 313
189 190 193 191 189 190 189 191 190 188 187 187 187 186 188 192 191 189 180 184 188 190 175 181 180 179 184 183 180 177 165 169 172 167 173 172 169 173 170 172 176 177 167 163 180 236 290 96 25 358 24 20 334 346 329 330 320 311 308 300 297 291 286 283 289 300 311 315 317 317 315 317 318 318 318 319 317 317 317 316 314 313 312 312 311
199 205 196 192 191 189 189 192 191 189 189 190 186 186 189 190 191 186 185 184 189 186 178 186 185 183 180 180 182 175 176 174 170 177 175 173 177 172 184 180 183 184 183 165 186 178 251 40 42 32 26 10 264 302 286 294 287 292 296 298 291 281 284 291 301 305 309 314 317 317 317 318 318 318 316 316 316 316 314 311 310 309 308 308 308
202 208 206 198 193 191 192 190 190 191 191 191 189 188 192 191 190 190 187 186 188 186 187 191 184 177 179 187 184 172 171 175 180 182 175 181 179 183 185 185 185 184 183 178 156 187 217 269 142 152 190 223 227 257 262 255 258 268 280 281 281 281 275 276 280 280 292 300 307 310 312 313 314 313 313 312 312 311 309 308 307 306 306 305 304
205 205 202 207 202 195 194 191 191 193 193 192 190 193 192 190 191 191 186 188 190 191 190 187 183 183 187 182 185 177 176 180 182 180 185 180 183 186 184 189 183 179 180 168 173 149 167 198 243 151 195 186 231 241 246 249 247 249 243 257 261 265 269 273 273 274 276 288 300 305 306 306 307 306 305 306 304 303 304 303 303 303 303 301 300
206 196 202 198 203 205 200 196 194 194 195 191 191 192 194 193 193 189 188 188 190 191 190 188 185 185 187 191 180 174 177 180 182 187 184 186 187 182 186 183 180 174 165 171 163 155 163 199 233 230 216 226 226 234 239 245 247 236 239 240 247 251 258 257 261 264 272 288 298 301 301 301 302 302 301 301 301 302 300 299 299 299 298 298 297
203 202 201 198 199 203 209 205 199 196 191 191 194 194 191 189 190 190 188 189 191 190 188 187 186 187 189 187 180 177 180 185 188 186 184 186 180 185 183 181 173 170 166 159 161 163 172 201 208 239 221 223 228 220 224 231 242 258 252 247 242 244 247 262 245 258 270 291 297 287 290 292 291 293 297 297 296 297 297 297 296 295 296 295 294
208 206 203 202 202 202 204 205 206 197 193 194 194 193 191 190 188 187 187 190 191 190 191 187 185 187 187 186 182 183 187 190 185 184 182 181 184 186 183 176 174 170 169 168 166 170 181 194 213 221 236 235 218 230 224 220 231 239 264 278 285 285 286 307 303 293 289 281 272 285 290 296 297 298 298 296 293 294 294 291 290 291 293 294 292
214 210 206 204 205 202 205 203 206 200 197 196 194 192 191 190 188 190 189 190 190 191 190 189 186 187 188 187 186 188 190 190 186 182 178 181 175 181 179 175 175 171 172 169 171 178 187 196 204 215 226 233 227 215 217 218 235 247 229 295 312 316 312 302 295 301 294 283 292 281 285 289 283 289 290 286 287 288 286 286 286 288 288 288 289
215 215 210 207 206 208 208 205 202 199 200 200 196 191 189 190 192 192 190 190 188 187 186 188 189 188 188 188 187 187 188 187 186 181 183 177 171 175 180 176 175 172 172 175 176 179 187 190 209 227 235 227 212 203 213 204 225 263 295 319 300 301 296 296 282 260 278 291 285 277 276 276 298 294 289 284 272 275 275 279 284 287 286 287 286
217 212 206 206 208 209 207 208 205 203 207 206 196 189 186 187 189 192 191 190 187 186 184 184 188 191 192 187 186 182 184 185 185 185 185 186 187 182 173 175 175 172 176 175 181 182 179 192 203 213 224 221 213 208 206 219 220 259 309 311 308 310 306 297 293 269 290 283 298 297 292 311 301 292 282 282 275 276 282 285 279 284 285 289 291
215 210 203 207 209 208 208 207 207 209 209 207 195 194 192 187 183 186 187 188 189 189 189 185 186 185 188 179 181 183 181 183 186 187 187 188 188 189 185 182 180 173 170 178 187 180 182 196 204 211 218 228 227 212 219 249 241 319 301 307 314 318 320 322 317 320 214 333 320 311 302 298 280 284 288 282 285 277 276 278 289 293 292 292 292
219 209 212 213 209 206 206 208 211 212 211 200 196 197 196 192 186 185 186 186 186 191 191 191 188 182 182 178 184 182 182 182 180 186 188 190 189 189 188 187 189 191 191 181 175 182 189 193 203 209 216 225 231 213 236 234 258 291 305 315 309 308 305 303 301 302 312 354 315 306 294 299 291 287 284 272 276 281 286 292 296 295 291 289 290
214 215 220 212 213 209 204 208 213 212 213 199 198 196 195 194 189 182 190 188 187 193 191 192 189 184 179 178 179 186 183 182 179 182 180 188 191 189 190 192 196 200 202 201 195 190 189 194 200 210 210 208 220 238 166 194 289 300 305 299 295 292 292 293 297 303 310 338 310 303 297 310 291 293 291 280 275 284 290 293 295 294 292 293 292
218 222 219 216 215 210 210 210 212 212 211 199 197 196 195 194 189 184 190 187 192 194 194 192 189 186 182 178 177 177 178 180 179 179 180 183 183 185 188 192 199 208 209 207 206 207 208 200 203 213 211 178 216 217 229 265 280 277 278 274 288 296 297 292 301 293 300 330 300 306 298 304 28 314 295 291 288 286 289 293 295 296 297 299 298
220 219 216 217 216 213 212 210 213 213 212 198 198 196 194 193 191 184 186 186 189 194 194 193 193 189 185 182 178 165 169 177 181 179 177 180 181 184 189 195 202 204 208 214 216 214 213 178 187 209 209 188 205 230 238 250 252 244 266 303 351 316 299 300 290 282 291 266 270 295 285 309 354 310 294 298 301 287 275 292 298 297 296 296 296
234 232 232 224 220 216 213 209 212 215 207 197 198 197 195 194 189 183 184 184 186 187 189 190 190 190 188 185 176 171 169 173 181 183 182 176 177 182 189 194 193 196 207 211 213 216 205 207 208 197 204 218 231 230 227 227 247 297 354 4 330 336 340 305 288 290 273 272 242 271 287 299 331 304 297 296 289 290 295 287 291 292 292 291 294
232 226 226 218 217 215 211 210 211 213 204 197 197 196 195 192 186 182 179 181 186 187 189 186 187 187 186 183 178 166 174 176 182 183 182 177 176 181 185 188 186 189 207 207 218 221 220 217 213 215 223 230 241 255 272 286 291 313 4 327 292 353 324 304 293 294 288 320 279 260 276 294 308 304 299 301 303 292 294 287 275 285 291 290 293
234 232 224 225 222 217 214 212 209 208 204 198 198 196 194 193 183 177 178 183 187 188 187 184 183 186 188 187 184 172 172 171 181 184 184 181 178 182 181 182 186 199 207 195 203 217 221 227 231 233 234 238 258 273 310 311 298 309 356 268 268 14 281 253 283 296 301 290 281 255 225 262 304 310 305 301 302 279 277 286 288 279 289 292 291
241 234 222 225 223 218 220 215 207 207 202 200 200 199 196 194 186 172 175 183 183 189 183 182 183 181 186 190 187 179 169 173 182 185 186 181 174 180 181 178 192 203 199 183 190 199 216 199 199 187 250 251 85 99 309 326 316 314 292 262 263 224 252 254 264 302 311 295 181 81 330 298 307 301 316 316 310 301 266 245 293 291 283 285 285